Farmville, Virginia, United States (23901)
Lat: 37.30N, Lon: 78.39W
Wx Zone: VAZ060
Local Info
Past Weather Observations for Today

NOTE: This archive is for the closest National Weather Service station to Farmville. Information may differ from the station used for current weather conditions.

Click here for Long-term Archive

Time Weather Temperature Dewpoint Humidity Pressure Winds Precip Visibility
21:54
Partly Cloudy
64°F / 18°C 57°F / 14°C 78% 30.04 in
(1017 mb)
ENE 5.8 mph
(ENE 9 kph)
- 10SM
20:54
Mostly Cloudy
66°F / 19°C 57°F / 14°C 73% 30.04 in
(1017 mb)
NE 6.9 mph
(NE 11 kph)
- 10SM
19:54
Mostly Cloudy
66°F / 19°C 59°F / 15°C 78% 30.04 in
(1017 mb)
NE 8.1 mph
(NE 13 kph)
- 10SM
18:54
Clear
64°F / 18°C 61°F / 16°C 88% 30.01 in
(1016 mb)
NNW 3.5 mph
(NNW 6 kph)
- 10SM
17:54
Clear
70°F / 21°C 63°F / 17°C 78% 30.01 in
(1016 mb)
Calm - 10SM
16:54
Partly Cloudy
77°F / 25°C 61°F / 16°C 57% 30.01 in
(1016 mb)
Calm - 10SM
15:54
Partly Cloudy
75°F / 24°C 63°F / 17°C 65% 30.01 in
(1016 mb)
Calm - 10SM
14:54
Partly Cloudy
77°F / 25°C 59°F / 15°C 54% 30.01 in
(1016 mb)
NW 6.9 mph
(NW 11 kph)
- 10SM
13:54
Mostly Cloudy
77°F / 25°C 63°F / 17°C 61% 30.04 in
(1017 mb)
NNW 4.6 mph
(NNW 7 kph)
- 10SM
12:54
Mostly Cloudy
75°F / 24°C 61°F / 16°C 61% 30.04 in
(1017 mb)
SW 4.6 mph
(SW 7 kph)
- 10SM
11:54
Overcast
73°F / 23°C 59°F / 15°C 61% 30.06 in
(1018 mb)
Calm - 10SM
10:54
Partly Cloudy
73°F / 23°C 61°F / 16°C 65% 30.06 in
(1018 mb)
Calm - 10SM
09:54
Mostly Cloudy
72°F / 22°C 61°F / 16°C 69% 30.09 in
(1019 mb)
Variable 4.6 mph
(Variable 7 kph)
- 10SM
08:54
Mostly Cloudy
64°F / 18°C 63°F / 17°C 94% 30.09 in
(1019 mb)
Calm - 10SM
07:54
Overcast
63°F / 17°C 63°F / 17°C 100% 30.09 in
(1019 mb)
S 3.5 mph
(S 6 kph)
- 10SM
06:54
Clear
61°F / 16°C 61°F / 16°C 100% 30.06 in
(1018 mb)
Calm - 5SM
05:54
Partly Cloudy
61°F / 16°C 61°F / 16°C 100% 30.06 in
(1018 mb)
SW 3.5 mph
(SW 6 kph)
- 10SM
05:15
Mostly Cloudy
Fog And Mist
59°F / 15°C 59°F / 15°C 100% 30.06 in
(1018 mb)
Calm - 3SM
04:59
Partly Cloudy
Fog And Mist
57°F / 14°C 57°F / 14°C 100% 30.06 in
(1018 mb)
Calm - 1 1/2SM
04:54
Obscured
Fog And Mist
57°F / 14°C 57°F / 14°C 100% 30.06 in
(1018 mb)
Calm - 1SM
04:47
Partly Cloudy
Fog And Mist
57°F / 14°C 57°F / 14°C 100% 30.06 in
(1018 mb)
Calm - 1 1/4SM
04:25
Partly Cloudy
Fog And Mist
57°F / 14°C 57°F / 14°C 100% 30.06 in
(1018 mb)
Calm - 2 1/2SM
04:21
Clear
Fog And Mist
57°F / 14°C 57°F / 14°C 100% 30.06 in
(1018 mb)
Calm - 3SM
04:13
Clear
Fog And Mist
57°F / 14°C 57°F / 14°C 100% 30.06 in
(1018 mb)
Calm - 2 1/2SM
03:54
Clear
Fog And Mist
59°F / 15°C 59°F / 15°C 100% 30.06 in
(1018 mb)
Calm - 3SM
02:54
Clear
61°F / 16°C 61°F / 16°C 100% 30.06 in
(1018 mb)
SW 3.5 mph
(SW 6 kph)
- 7SM
01:54
Clear
63°F / 17°C 63°F / 17°C 100% 30.06 in
(1018 mb)
Calm - 8SM
00:54
Clear
63°F / 17°C 63°F / 17°C 100% 30.06 in
(1018 mb)
SSE 5.8 mph
(SSE 9 kph)
- 8SM
Time Weather Temperature Dewpoint Humidity Pressure Winds Precip Visibility


Weather for websites

WeatherForYou.com, LLC is not responsible for any damages or problems caused by this service. Current weather conditions are obtained from the closest station including government and personal stations which may have varying degrees of accuracy. Weather forecasts are derived from the NOAA NDFD. Like all things, this site belongs to Jesus Christ... He just trusts me to maintain it. If you have any questions or comments email webmaster@weatherforyou.com

Copyright © 2014, WeatherForYou.com LLC. All rights reserved.